KD9LKD-13 Weather Reports


time (UTC)temp
C
wind
direction
speed
KPH
gust
KPH
rain 1hr
cm
rain 24hr
cm
rain mn
cm
humidity
%
barometer
mb
20260503193031 17 208 9.7 29.0 0.00 0.00 0.00 37 1010.0
20260503191524 16 261 6.4 32.2 0.00 0.00 0.00 43 1010.3
20260503190013 16 217 11.3 29.0 0.00 0.00 0.00 45 1010.3
20260503184516 17 260 4.8 33.8 0.00 0.00 0.00 46 1010.4
20260503183015 16 194 11.3 30.6 0.00 0.00 0.00 38 1010.7
20260503181520 16 267 14.5 33.8 0.00 0.00 0.00 36 1010.9
20260503180024 16 290 11.3 38.6 0.00 0.00 0.00 39 1011.2
20260503174510 16 25 6.4 22.5 0.00 0.00 0.00 45 1011.1
20260503173019 15 213 6.4 24.1 0.00 0.00 0.00 43 1011.3
20260503171518 15 215 9.7 22.5 0.00 0.00 0.00 45 1011.7
20260503071524 0 225 0.0 4.8 0.00 0.00 0.00 71 1014.6
20260503051508 0 213 0.0 0.0 0.00 0.00 0.00 72 1015.5
20260503050011 1 213 0.0 0.0 0.00 0.00 0.00 73 1015.5
20260503044516 1 213 0.0 0.0 0.00 0.00 0.00 71 1015.6
20260503043018 1 213 0.0 0.0 0.00 0.00 0.00 70 1015.5
20260503041506 1 223 0.0 6.4 0.00 0.00 0.00 71 1015.5
20260503040010 1 245 0.0 3.2 0.00 0.00 0.00 71 1015.7
20260503034512 1 245 0.0 0.0 0.00 0.00 0.00 70 1015.8
20260503033024 1 245 0.0 1.6 0.00 0.00 0.00 70 1015.8
20260503030010 1 245 0.0 1.6 0.00 0.00 0.00 70 1015.8
20260503024508 2 245 0.0 1.6 0.00 0.00 0.00 69 1016.0
20260503023019 2 245 0.0 0.0 0.00 0.00 0.00 69 1016.1
20260503021520 2 245 0.0 0.0 0.00 0.00 0.00 68 1016.0
20260503020024 2 245 0.0 0.0 0.00 0.00 0.00 66 1015.8
20260503014507 3 245 0.0 0.0 0.00 0.00 0.00 64 1015.9
20260503013012 3 245 0.0 1.6 0.00 0.00 0.00 62 1015.7
20260503003033 6 245 0.0 3.2 0.00 0.00 0.00 54 1015.4
20260503001520 6 313 1.6 4.8 0.00 0.00 0.00 51 1015.3
20260502224524 8 267 3.2 9.7 0.00 0.00 0.00 47 1015.7
20260502223022 8 292 1.6 9.7 0.00 0.00 0.00 47 1015.8
20260502221524 8 205 1.6 9.7 0.00 0.00 0.00 46 1015.8
20260502213023 8 263 1.6 14.5 0.00 0.00 0.00 48 1015.7
20260502211524 8 5 3.2 12.9 0.00 0.00 0.00 45 1015.9
20260502210026 8 279 1.6 12.9 0.00 0.00 0.00 48 1015.9
20260502203024 8 312 3.2 14.5 0.00 0.00 0.00 45 1016.1
20260502201505 8 260 1.6 16.1 0.00 0.00 0.00 45 1016.3
20260502194514 7 254 4.8 16.1 0.00 0.00 0.00 47 1016.6